カタログに戻る

DELTA 4 R/B

運用中HEO
NORAD 27692·ROCKET BODY·🇺🇸 United States

打ち上げ Mar 11, 2003 から Cape Canaveral Space Force Station

Loading…

次のパス (今後24時間)

TLE

最新Source: Space-Track

元期: Sep 14, 2026, 19:04 UTC

1 27692U 03008B   26257.79471090  .00039079  00000-0  15367-2 0  9998
2 27692  25.2525 279.1075 5640022 265.8698  31.3670  4.66868050105563

AllMySatでDELTA 4 R/Bをリアルタイム追跡

Download on the App Store